{"data":{"norad_id":59690,"epoch":"2026-09-21T16:08:29.937408Z","epoch_age_seconds":69917,"freshness":"FRESH","line1":"1 59690U 24086J   26264.67256872  .00000372  00000+0  23040-4 0  9996","line2":"2 59690  43.0044  25.4367 0001552 272.1168  87.9506 15.27578945134177","mean_motion":15.27578945,"eccentricity":0.0001552,"inclination_deg":43.0044,"raan_deg":25.4367,"arg_perigee_deg":272.1168,"mean_anomaly_deg":87.9506,"bstar":2.304e-5,"rev_number":13417,"period_min":94.266813817599,"perigee_km":481.98739851862,"apogee_km":484.1171116634,"semimajor_km":6861.189255091,"source":"CELESTRAK","updated_at":"2026-09-22T09:00:49.033737Z"}}